Theta_e
317 326 326 325 332 330 334 335 332 335 336 334 337 338 339 338 341 344 338 337 337 337 327 332 335 336 335 334 333 334 334 333 331 331 331 330 328 328 328 328 328 328 328 328 328 328 328 328 324
317 324 324 330 333 332 330 330 333 334 331 331 335 334 337 340 340 339 338 337 337 334 327 334 336 335 334 335 334 334 332 333 333 332 330 329 329 330 329 328 327 327 327 327 327 329 328 325 324
319 322 331 333 333 330 329 328 333 329 331 335 334 331 334 338 339 338 338 336 336 331 328 335 337 335 334 335 334 333 331 331 332 331 331 329 329 329 328 328 327 327 327 327 327 327 325 324 324
319 327 327 334 333 332 326 325 330 332 328 327 332 335 334 336 338 338 338 335 334 329 329 337 337 334 334 333 333 331 330 330 332 331 330 329 328 328 329 329 327 326 326 326 325 322 319 320 322
323 328 335 335 334 328 323 323 328 332 329 329 331 334 337 337 338 339 336 335 331 331 330 337 335 334 332 332 332 328 326 328 330 330 328 328 327 328 327 327 327 326 327 325 319 315 315 315 315
325 329 333 336 333 326 323 324 329 330 326 329 330 333 339 338 339 339 335 332 328 331 331 337 333 333 330 331 330 326 328 329 328 328 328 328 326 325 325 324 323 322 322 322 320 320 320 319 319
324 330 333 334 334 327 325 325 328 328 326 329 329 331 336 337 338 337 336 330 326 329 331 335 336 333 331 333 328 327 325 327 323 324 326 326 326 326 324 324 323 324 323 323 323 322 321 321 320
326 328 331 332 333 331 325 325 323 325 326 325 329 329 332 339 337 337 337 331 326 328 331 335 336 337 336 334 330 327 328 329 328 326 324 324 324 323 323 323 323 322 323 323 322 322 322 322 321
323 328 331 332 332 331 323 326 320 322 325 328 328 326 328 338 334 336 336 331 327 328 331 333 337 335 337 337 334 328 328 328 328 328 327 327 329 328 326 325 322 322 322 322 322 322 322 322 323
324 326 327 328 329 328 323 325 322 325 327 328 329 329 334 334 335 335 335 333 329 328 329 333 336 336 335 336 335 334 332 331 331 331 330 330 329 328 327 325 322 322 322 322 323 323 323 324 325
321 321 322 326 326 327 323 324 323 326 327 326 328 331 333 334 335 336 336 334 330 328 328 329 329 335 335 335 335 334 332 331 331 331 331 330 330 329 328 327 326 325 324 324 324 325 326 326 326
319 318 319 324 325 326 326 324 325 326 327 326 327 331 333 334 335 335 335 335 332 330 329 327 328 329 331 332 332 331 330 330 330 330 331 330 330 329 329 328 327 327 325 325 326 325 326 326 326
318 318 318 322 322 324 322 325 326 327 325 327 326 333 335 335 335 335 336 335 334 333 332 329 327 327 328 329 328 329 329 329 328 328 329 329 329 329 329 328 327 326 326 325 325 326 326 327 327
316 317 319 320 320 322 326 324 324 326 326 330 331 334 335 335 335 336 337 337 336 335 335 332 329 329 329 328 327 327 327 327 327 328 327 327 328 328 328 327 327 326 326 326 326 326 327 327 327
318 319 319 320 320 320 322 326 326 323 326 330 332 334 335 335 335 336 337 337 336 335 334 333 332 332 332 331 330 329 328 327 327 328 328 327 326 327 327 327 328 327 327 327 327 328 328 328 328
320 319 318 318 320 319 318 325 325 320 327 329 332 333 334 335 335 336 337 337 337 336 336 335 334 334 334 333 332 331 331 331 330 330 329 329 328 328 328 329 329 329 329 328 329 329 329 327 326
320 321 319 320 318 319 316 319 315 317 321 328 331 332 332 333 334 334 335 336 336 336 336 335 335 335 335 335 334 334 333 333 333 332 332 331 330 330 329 330 330 330 330 330 329 329 328 328 327
323 321 320 319 319 319 319 317 315 315 318 323 327 329 331 331 331 332 332 333 333 334 334 335 335 335 335 335 335 335 334 334 334 333 333 332 331 331 331 331 331 331 331 331 330 330 330 329 328
318 320 320 317 316 320 321 320 318 316 316 319 321 322 323 324 323 323 324 324 323 328 331 331 332 333 334 334 335 334 334 334 334 333 333 332 332 332 331 332 332 331 331 331 331 331 330 331 330
316 318 316 316 315 319 318 320 320 318 318 317 317 319 320 320 318 317 315 313 313 318 324 328 329 330 331 332 332 332 333 333 333 333 332 332 332 332 332 332 332 331 331 331 330 330 328 329 329
318 314 313 314 314 310 312 315 315 313 313 314 315 317 316 316 317 316 314 312 310 311 312 314 319 324 327 329 330 330 330 330 330 330 331 331 331 330 331 331 331 331 330 330 331 329 328 328 327
319 315 313 316 315 312 309 315 311 308 308 307 311 314 314 314 312 312 311 313 310 310 309 310 310 311 313 317 325 328 329 330 331 330 331 331 330 330 330 330 329 329 329 329 330 328 326 326 327
314 313 313 312 314 314 312 311 313 306 309 308 306 306 308 307 306 308 308 308 309 309 310 310 310 310 311 312 312 317 322 324 326 326 327 328 328 329 329 329 328 328 327 327 329 327 323 324 327
312 315 316 316 316 318 312 312 313 311 309 307 306 309 308 307 305 306 307 308 308 307 308 309 310 309 310 310 311 312 313 314 315 317 318 321 323 323 324 326 326 326 327 327 327 326 325 325 325
314 315 318 318 321 315 308 312 311 311 309 305 306 305 309 307 308 309 309 309 308 307 307 308 308 308 309 311 311 311 311 311 312 314 315 318 320 319 321 323 325 325 324 324 325 325 322 322 319
315 312 314 315 317 312 306 314 314 307 305 306 306 306 307 308 308 309 309 308 308 307 306 306 306 307 308 310 311 312 313 313 313 312 313 316 318 319 320 321 322 322 323 322 320 319 318 317 315
313 313 311 316 310 316 314 311 308 309 307 307 305 306 308 309 309 310 309 308 307 306 305 305 305 304 305 305 306 309 311 312 312 313 314 316 318 318 318 318 318 318 317 316 316 316 315 311 307
312 311 316 317 318 318 313 308 311 310 306 306 308 308 308 307 308 308 308 307 306 305 304 304 304 303 303 303 303 304 305 308 310 311 312 313 313 313 312 312 312 311 311 309 307 306 304 303 303
311 312 313 313 312 312 310 309 306 306 305 306 306 308 308 308 308 309 308 307 305 304 303 303 303 303 303 303 303 302 302 303 305 307 309 309 309 309 309 308 307 305 303 302 302 301 301 300 300
311 311 312 314 315 312 310 313 309 306 305 307 307 306 307 308 309 309 308 306 305 305 303 303 303 303 303 303 303 302 302 302 302 302 303 303 304 304 303 303 302 301 301 300 300 299 299 298 299
Wind_Speed
10 5 6 4 5 5 4 5 2 8 8 4 13 4 8 2 2 2 7 13 22 25 22 23 21 22 21 19 18 16 13 11 10 10 10 10 10 11 11 11 11 10 10 10 9 9 9 9 11
3 5 3 2 5 7 4 5 9 9 6 9 8 4 5 3 3 7 14 12 24 23 23 21 22 23 21 19 18 15 11 11 10 10 10 11 10 10 10 9 10 9 9 9 8 7 7 8 8
1 4 3 3 4 8 3 7 8 7 10 11 7 2 1 2 3 12 6 21 24 21 22 20 23 23 20 19 16 14 11 10 10 10 9 9 8 7 7 8 7 9 8 8 7 7 6 6 6
3 5 3 6 8 4 2 5 10 14 5 6 4 5 3 1 5 10 19 26 24 22 21 21 25 22 19 18 15 12 10 9 10 9 8 8 8 8 10 8 6 7 7 7 6 5 4 3 3
2 3 5 6 9 2 4 3 11 14 9 8 7 5 3 4 5 13 20 24 24 22 21 22 23 21 18 16 15 12 10 9 9 9 8 7 7 7 8 8 8 5 4 3 3 3 3 3 3
4 3 6 10 8 3 3 6 11 11 6 6 5 6 4 4 11 15 20 23 21 22 21 20 21 18 17 14 13 11 9 8 9 10 9 8 7 6 6 5 3 3 1 1 1 2 3 4 4
5 6 8 7 7 4 5 9 11 11 7 7 2 6 4 7 11 16 20 20 19 18 19 18 17 18 16 14 13 11 9 7 7 9 10 9 8 6 6 5 3 3 2 2 3 4 5 5 5
3 4 6 6 7 5 7 10 4 10 8 2 4 5 4 13 14 17 20 19 18 17 17 17 16 16 15 14 14 12 11 9 8 6 8 7 6 6 7 7 6 6 6 5 5 6 7 7 8
2 5 9 9 8 4 8 10 4 2 6 3 5 0 4 21 19 18 20 19 18 18 18 17 18 18 15 14 14 13 12 12 12 8 8 7 6 6 6 7 8 7 7 7 8 8 9 10 11
5 7 10 4 6 5 9 8 10 7 7 7 7 4 10 19 21 22 21 21 21 19 19 18 17 19 16 14 13 13 11 10 10 10 9 8 8 7 7 8 8 9 9 10 10 10 10 10 8
5 7 5 5 4 4 8 7 7 6 8 9 12 12 14 19 20 21 21 22 21 19 18 18 18 19 20 15 14 13 12 12 11 12 11 11 10 9 9 8 8 8 9 8 9 9 8 9 9
5 5 2 2 3 4 7 5 7 11 2 1 4 12 18 18 20 23 22 21 22 22 20 19 19 17 18 16 15 14 14 13 13 13 13 12 11 11 10 10 9 9 9 9 10 9 9 10 11
6 3 4 1 2 2 5 6 4 10 3 1 7 14 15 16 18 19 18 18 19 20 20 21 20 18 17 18 15 15 15 15 14 14 13 13 13 12 11 11 10 11 10 10 10 10 10 10 10
2 3 3 2 2 1 4 3 2 6 6 4 8 12 13 16 18 17 19 20 20 18 19 19 20 19 17 17 16 15 14 14 14 14 14 15 14 13 12 12 12 12 11 10 10 10 10 10 10
1 5 2 4 3 2 2 4 7 2 6 7 8 9 11 14 17 20 20 20 19 18 16 18 19 19 19 19 17 17 16 17 16 15 15 16 16 15 14 12 12 12 10 10 10 11 10 10 11
3 2 6 4 4 1 4 11 8 4 6 10 9 9 10 13 15 16 16 18 17 16 17 17 18 19 20 19 17 17 17 16 16 15 15 16 17 17 14 14 13 12 11 11 11 11 12 14 16
1 5 8 2 3 2 7 7 3 1 6 9 9 9 9 10 13 15 15 15 16 16 16 17 18 19 19 18 17 16 16 17 16 15 15 16 17 18 16 15 14 13 12 12 12 12 13 13 14
5 6 5 12 4 3 7 12 2 3 4 9 9 8 9 10 11 14 14 14 15 15 16 17 17 18 18 17 16 16 16 18 17 18 18 18 17 19 19 17 16 14 14 13 13 13 13 15 15
2 3 6 0 2 4 10 12 11 4 5 8 9 10 10 10 8 9 11 12 13 15 17 17 17 17 17 16 15 16 18 18 19 20 21 20 19 18 18 17 16 15 15 14 13 13 12 13 12
2 1 1 0 2 2 2 14 12 8 8 10 10 10 11 7 7 8 9 10 10 10 13 15 15 14 16 15 15 13 11 14 17 15 18 18 18 18 19 17 16 15 14 14 13 11 12 12 11
4 2 1 2 1 2 2 8 10 5 8 10 12 12 10 10 9 7 8 9 7 7 7 9 11 14 15 15 14 13 12 15 12 13 13 16 17 18 19 19 17 15 14 14 13 14 14 11 10
3 2 3 3 2 4 2 6 4 3 9 8 12 12 13 11 9 8 8 11 9 5 6 6 6 7 8 12 12 14 15 15 14 11 11 10 12 14 15 17 16 15 13 13 13 14 13 10 13
5 3 1 2 2 1 4 5 4 1 5 7 4 4 6 6 8 8 8 9 6 5 5 5 5 6 6 6 7 8 11 12 12 12 12 11 11 14 14 15 15 14 12 12 12 12 12 14 12
11 5 3 2 1 5 2 4 8 4 3 1 1 3 4 3 1 3 4 6 6 5 5 4 4 4 4 4 6 7 7 8 8 8 9 8 8 10 12 13 12 11 10 10 9 9 8 6 5
6 7 3 4 4 6 3 3 9 11 6 4 3 5 2 0 3 5 6 7 6 5 5 4 4 3 2 2 2 2 4 7 9 8 6 6 6 7 9 9 10 10 9 10 10 9 8 6 3
9 12 5 6 4 1 2 6 2 3 4 4 5 6 3 4 3 4 5 7 7 6 5 6 6 5 4 3 2 1 1 2 4 6 7 5 5 7 7 7 7 7 8 8 7 7 7 7 5
5 8 8 3 2 1 4 5 10 10 3 3 3 2 6 4 5 5 5 6 7 7 6 6 6 5 4 3 3 2 2 2 2 2 2 4 5 6 6 6 6 7 7 6 7 7 7 6 4
5 11 6 4 4 5 5 5 7 6 6 8 5 5 6 4 5 5 6 6 5 6 7 7 6 5 4 3 2 2 1 2 1 2 2 3 5 5 5 5 5 5 5 6 6 6 6 5 4
4 5 3 5 1 3 3 4 4 3 1 5 8 6 5 6 7 7 7 6 7 7 7 7 6 5 4 3 2 1 1 1 1 1 1 2 3 4 4 5 5 5 5 6 6 6 6 6 5
1 0 6 4 4 3 2 7 4 5 3 5 8 6 4 5 5 5 7 8 8 7 7 7 7 6 5 3 2 2 1 0 1 1 2 2 2 3 4 5 5 5 6 6 6 5 5 5 4
Wind_Direction
347 136 159 201 233 239 213 181 158 154 163 146 156 195 193 24 216 28 136 153 157 157 161 165 163 158 161 160 162 156 151 139 131 123 117 114 111 106 102 102 101 100 99 94 94 92 85 72 63
329 161 200 250 249 225 191 156 191 158 134 149 158 168 192 140 97 112 142 164 158 157 160 166 164 163 166 161 158 158 154 142 134 126 120 118 115 109 106 101 104 102 100 95 91 90 80 72 61
179 208 242 238 242 248 236 181 164 129 143 165 163 251 136 107 127 158 157 157 158 158 161 167 167 168 167 165 163 161 156 147 138 135 132 126 124 118 120 100 95 103 100 99 94 86 81 73 60
212 199 188 240 228 229 259 175 162 149 169 203 180 169 141 75 142 164 153 156 158 160 162 170 167 168 169 165 168 168 162 155 148 144 140 136 133 133 122 113 109 103 102 97 92 86 80 72 49
217 242 228 237 240 239 231 204 177 171 154 172 189 153 132 130 143 149 155 160 162 162 164 167 171 173 175 168 172 174 172 166 160 156 153 151 144 141 154 147 133 116 98 96 91 70 47 29 16
215 258 225 226 217 200 208 186 174 184 162 151 196 159 125 126 150 155 160 164 166 164 166 171 175 177 178 174 178 177 169 168 174 172 170 174 167 171 172 174 182 188 177 62 43 23 2 342 334
252 220 236 237 237 219 185 166 189 183 176 183 134 187 114 161 158 157 163 165 168 168 167 171 176 179 182 184 183 182 171 173 173 181 184 189 196 209 203 200 202 215 235 291 305 310 323 328 318
246 246 207 221 210 215 149 170 213 191 179 109 183 192 172 172 159 154 162 165 167 171 172 176 177 184 186 190 191 187 172 179 190 197 188 191 197 208 216 229 244 241 250 266 278 288 296 303 304
238 219 224 212 191 170 154 187 156 132 154 188 180 264 85 148 152 152 160 168 171 176 180 183 187 190 188 190 196 196 194 191 197 212 209 207 208 218 226 232 237 246 253 262 271 279 285 291 302
221 219 221 228 190 176 176 196 163 179 172 185 192 130 135 152 157 160 169 175 180 182 187 189 192 195 194 196 197 201 209 209 211 212 217 217 223 225 227 236 245 251 260 267 271 276 283 296 290
175 230 219 207 193 151 166 196 174 194 201 204 199 174 163 165 172 174 179 183 185 187 191 197 199 198 200 200 202 207 214 215 219 223 224 226 230 237 241 243 252 253 265 269 277 278 279 276 284
203 227 206 151 181 168 164 167 192 213 115 293 169 167 164 177 179 182 184 186 187 191 197 199 201 203 207 208 212 216 216 218 221 224 227 228 235 239 241 245 248 253 256 263 270 272 276 279 282
224 184 178 144 208 216 146 182 226 216 189 104 160 158 172 182 186 192 192 192 194 198 200 201 201 205 207 210 215 218 221 225 228 229 229 228 233 239 242 249 252 254 255 260 266 270 275 279 281
244 171 138 174 201 201 196 151 197 206 167 148 174 175 178 186 189 191 196 199 201 204 204 202 206 208 211 214 217 221 226 230 231 234 234 233 236 242 246 251 256 258 258 259 263 267 272 277 279
173 172 138 193 195 220 234 180 211 126 188 187 184 186 181 188 191 199 199 202 202 206 207 208 211 213 217 223 226 228 232 235 238 239 239 238 240 243 247 254 256 259 259 263 266 270 269 273 275
175 177 192 151 182 190 227 223 195 151 198 203 194 191 189 195 197 201 201 206 207 209 210 211 213 216 221 222 227 230 234 234 238 238 241 241 242 244 245 249 253 255 255 256 256 261 265 276 284
167 205 206 186 211 187 220 236 142 173 194 214 206 199 199 197 202 206 209 210 211 216 218 220 219 220 222 226 228 233 238 239 240 240 241 242 243 245 243 247 256 259 260 259 261 263 265 269 278
175 204 211 213 165 220 212 240 177 195 237 221 216 213 207 214 215 210 211 214 218 222 224 225 224 225 225 228 231 236 239 243 242 242 242 243 243 246 247 249 251 254 257 260 260 262 264 268 277
287 223 216 205 36 216 232 254 244 210 249 237 232 223 227 222 215 219 217 218 222 226 225 224 221 223 219 219 221 231 236 240 241 243 246 245 244 243 245 245 249 249 252 259 261 264 268 273 269
44 232 199 7 11 220 284 263 258 242 248 237 238 243 241 227 218 205 206 203 210 216 218 219 219 217 215 217 220 227 231 239 242 246 247 245 242 241 241 243 245 247 251 257 252 246 254 265 276
228 265 226 355 93 67 310 272 248 231 248 254 248 246 256 249 236 220 203 200 189 187 189 199 210 217 219 222 224 234 243 251 253 249 248 249 251 250 246 246 245 248 245 252 252 249 252 258 277
251 267 245 149 200 251 322 261 238 240 254 247 251 251 252 248 245 248 225 212 203 186 191 184 186 192 207 221 225 231 239 248 253 255 255 255 253 251 247 246 245 243 243 248 249 251 250 251 264
198 13 110 126 152 262 203 261 227 21 258 241 236 268 284 281 250 237 236 227 190 187 190 195 195 202 216 222 224 231 241 252 259 261 266 260 256 251 247 245 244 243 243 250 248 256 255 258 257
136 93 50 45 67 254 206 259 242 207 234 83 345 335 331 334 93 132 124 152 154 169 175 181 175 189 212 226 238 240 250 257 262 264 263 260 253 248 245 242 237 237 238 241 241 248 252 257 247
110 158 202 223 210 250 54 245 285 287 278 287 290 318 345 0 140 141 144 147 146 149 151 147 150 143 155 184 220 255 270 270 266 266 265 262 246 241 238 233 231 231 233 238 235 231 234 238 245
154 193 191 204 214 322 71 242 226 242 260 267 280 291 219 193 172 167 152 149 145 143 137 132 131 122 115 120 125 93 38 336 297 271 258 260 241 228 223 217 212 205 217 214 214 219 233 240 234
164 205 201 47 95 286 248 258 263 293 20 2 314 256 221 211 197 182 162 168 159 152 146 144 142 136 129 121 106 91 89 80 44 16 217 215 212 203 192 192 194 195 203 208 212 219 224 218 204
195 144 124 181 197 229 229 259 248 266 357 341 318 235 225 210 214 200 184 179 171 160 158 153 150 148 139 128 117 108 92 88 91 82 105 146 168 172 178 182 187 195 201 207 200 191 184 180 170
145 176 104 131 224 263 280 232 211 246 43 331 324 299 253 222 213 201 198 187 178 173 170 168 160 154 148 151 138 116 70 69 78 119 156 169 165 174 183 192 197 191 184 179 174 166 164 165 154
269 133 191 201 191 249 289 254 295 319 9 348 330 303 265 252 228 209 197 192 190 188 184 180 173 167 165 170 165 151 116 112 140 146 152 162 172 179 185 186 184 175 167 166 171 170 165 161 150